RPLIRPVP

Guest
Details From RPLI - LAOAG INTL
To RPVP - PUERTO PRINCESA
Flight Number -
Tags decoded
Created
Modified
Stats Distance 566 nm / 1,047 km
Max Altitude 0 ft / 0 m
Waypoints 5
Social Downloads 0
Likes 0
Share VATSIM

Download

Looking for another format? Having issues loading an existing format? Contact us
Advertisement - Login to hide

Notes

Requested: RPLI SBA SAJ PR RPVP

Route

RPLI SBA SAJ PR RPVP

ID Type Via Altitude Latitude Longitude Leg Dist Tot Dist Heading (true) Name
O RPLI APT - 0 ft / 0 m 18.17614˚ 120.53110˚ - 0 nm - LAOAG INTL
SBA VOR - 0 ft / 0 m 14.76961˚ 120.22507˚ 205 nm 205 nm 185° / 185° SUBIC BAY VOR-DME
SAJ VOR - 0 ft / 0 m 12.36031˚ 121.04308˚ 152 nm 357 nm 162° / 162° SAN JOSE VOR-DME
PR NDB - 0 ft / 0 m 9.73708˚ 118.75376˚ 207 nm 565 nm 221° / 220° PUERTO PRINCESA NDB
O RPVP APT - 0 ft / 0 m 9.74212˚ 118.75873˚ 0 nm 565 nm 44° / 44° PUERTO PRINCESA

Altitude Profile

Advertisement - Login to hide

Weather


0- 5 10 15 20 25 30 35+ Temperature / ° C

Clouds and Precipitation
Forecast for 2018-05-22 12:00 UTC. Updated an hour ago

Ground ~20,000 ft ~40,000 ft Winds

RPLI

Details ICAO RPLI (LAO)
Name LAOAG INTL
Region Philippines
Timezone Asia/Manila (UTC+8.0)
Stats Elevation 25 ft / 8 m (AMSL)
Location 18.176144° 120.531104°
Runways 1
Magnetic Variation 2.905° W

METAR

RPLI 221000Z 12004KT 9999 FEW018CB SCT019 BKN280 30/24 Q1008 NOSIG RMK A2977 CB NE AND S

Decode

TAF

TAF RPLI 220500Z 2206/2306 29008KT 9999 FEW019 SCT290 TEMPO 2206/2212 32010G22KT TS SCT018CB SCT019 BKN100

Decode

Departure Runways

ID Width Length Bearing (true) Bearing (mag) Surface Threshold Offset Overrun Length
01 148 ft / 45 m 9,165 ft / 2,793 m 5.37° 8.27° Concrete 1,181 ft / 360 m 1,200 ft / 366 m
19 148 ft / 45 m 9,165 ft / 2,793 m 185.37° 188.27° Concrete 0 ft / 0 m 0 ft / 0 m

RPVP

Details ICAO RPVP (PPS)
Name PUERTO PRINCESA
Region Philippines
Timezone Asia/Manila (UTC+8.0)
Stats Elevation 71 ft / 22 m (AMSL)
Location 9.742119° 118.758730°
Runways 1
Magnetic Variation 1.196° W

METAR

RPVP 221000Z 18001KT 9999 FEW017CB BKN240 30/25 Q1008 RMK A2977 CB W

Decode

TAF

Not found

Destination Runways

ID Width Length Bearing (true) Bearing (mag) Surface Threshold Offset Overrun Length
09 148 ft / 45 m 8,526 ft / 2,599 m 92.52° 93.72° Concrete 0 ft / 0 m 560 ft / 171 m
27 148 ft / 45 m 8,526 ft / 2,599 m 272.52° 273.72° Concrete 0 ft / 0 m 574 ft / 175 m

Popular Alternatives